Weather History for KAFF - September, 2013

Change the Weather History Date:

Wednesday, September 4, 2013

  Actual Average Record
Temperature  
Mean Temperature 74 °F -  
Max Temperature 84 °F 75 °F 86 °F (1998)
Min Temperature 64 °F 48 °F 39 °F (2008)
Cooling Degree Days 9    
Growing Degree Days 24 (Base 50)    
Moisture  
Dew Point 50 °F    
Average Humidity 46    
Maximum Humidity 61    
Minimum Humidity 28    
Precipitation  
Precipitation 0.00 in - - ()
Sea Level Pressure  
Sea Level Pressure 30.07 in    
Wind  
Wind Speed 6 mph (North)    
Max Wind Speed 21 mph    
Max Gust Speed 24 mph    
Visibility 10 miles    
Events      
Averages and records for this station are not official NWS values.
T = Trace of Precipitation, MM = Missing Value Source: NWS Daily Summary

Daily Weather History Graph

Daily Weather History Graph

Search for Another Location

Airport or City:

Trip Planner

Search our weather history database for the weather conditions in past years. The results will help you decide how hot, cold, wet, or windy it might be!

Date:

Astronomy

Sep. 04, 2013 Rise Set
Actual Time 6:31 AM MDT 7:24 PM MDT
Civil Twilight 6:03 AM MDT 7:51 PM MDT
Nautical Twilight 5:31 AM MDT 8:23 PM MDT
Astronomical Twilight 4:58 AM MDT 8:57 PM MDT
Moon 5:45 AM MDT (9/4) 6:45 PM MDT (9/4)
Length of Visible Light 13h 47m
Length of Day
12h 53m
Waning Crescent, 1% of the Moon is Illuminated
Sep 4
Waning Crescent
Sep 5
New
Sep 12
First Quarter
Sep 19
Full
Sep 26
Last Quarter

Hourly Weather History & Observations

Time (MDT) Temp. Heat Index Dew Point Humidity Pressure Visibility Wind Dir Wind Speed Gust Speed Precip Events Conditions
1:58 AM 65.3 °F - 51.1 °F 60% 29.99 in 10.0 mi NNW 5.8 mph - N/A   Overcast
2:58 AM 65.7 °F - 50.0 °F 57% 30.28 in 10.0 mi North 5.8 mph - N/A   Overcast
3:58 AM 67.6 °F - 49.3 °F 52% 30.28 in 10.0 mi Variable 2.3 mph - N/A   Mostly Cloudy
4:58 AM 65.3 °F - 51.1 °F 60% 30.28 in 10.0 mi North 8.1 mph - N/A   Mostly Cloudy
5:58 AM 64.9 °F - 50.2 °F 59% 30.02 in 10.0 mi North 8.1 mph - N/A   Scattered Clouds
6:58 AM 65.7 °F - 51.6 °F 60% 30.02 in 10.0 mi North 4.6 mph - N/A   Scattered Clouds
7:58 AM 65.7 °F - 52.0 °F 61% 30.06 in 10.0 mi North 5.8 mph - N/A   Clear
8:58 AM 70.9 °F - 54.0 °F 55% 30.06 in 10.0 mi North 4.6 mph - N/A   Partly Cloudy
9:58 AM 76.1 °F - 52.2 °F 43% 30.06 in 10.0 mi North 4.6 mph - N/A   Clear
10:58 AM 79.5 °F - 48.2 °F 33% 30.05 in 10.0 mi NNE 1.2 mph - N/A   Scattered Clouds
11:58 AM 84.4 °F - 48.0 °F 28% 30.04 in 10.0 mi Variable 1.2 mph - N/A   Partly Cloudy
12:58 PM 82.0 °F - 48.2 °F 31% 30.04 in 10.0 mi Calm Calm - N/A   Scattered Clouds
1:58 PM 81.3 °F - 49.8 °F 33% 30.04 in 10.0 mi South 5.8 mph - N/A   Partly Cloudy
2:58 PM 81.3 °F - 50.7 °F 34% 30.03 in 10.0 mi SSW 5.8 mph - N/A   Partly Cloudy
3:58 PM 82.8 °F - 49.3 °F 31% 30.01 in 10.0 mi Variable 3.5 mph - N/A   Scattered Clouds
4:58 PM 84.0 °F - 48.0 °F 28% 30.01 in 10.0 mi North 4.6 mph - N/A   Clear
5:58 PM 80.8 °F 80.5 °F 54.3 °F 40% 30.02 in 10.0 mi North 3.5 mph - N/A   Partly Cloudy
6:58 PM 77.5 °F - 51.8 °F 41% 30.06 in 10.0 mi North 20.7 mph 24.2 mph N/A   Partly Cloudy
7:58 PM 72.3 °F - 50.7 °F 46% 30.09 in 10.0 mi North 10.4 mph - N/A   Clear
8:58 PM 71.8 °F - 48.6 °F 44% 30.09 in 10.0 mi Variable 3.5 mph - N/A   Clear
9:58 PM 70.0 °F - 50.0 °F 49% 30.08 in 10.0 mi NNW 5.8 mph - N/A   Clear
10:58 PM 65.5 °F - 50.7 °F 59% 30.06 in 10.0 mi NNE 6.9 mph - N/A   Clear
11:58 PM 64.8 °F - 50.7 °F 60% 30.04 in 10.0 mi NE 9.2 mph - N/A   Clear